Showing default

HULIANWANG DIGUI-90, 65998

Orbit data source: Space-Track

HULIANWANG DIGUI-90, 65998 is a payload satellite owned by Zhongguo Xingwang (CN) in LEO that was launched on Thu, 16 Oct 2025 UTC via a CHANG ZHENG 8A launch vehicle from the Wenchang Satellite Launch Center (WSC). Payload-class satellites include a variety of spacecraft equipped with specific instruments for various scientific and technological missions. These include communications satellites like Starlink; space stations such as the ISS; scientific satellites like the Hubble; Earth observation satellites from companies like Planet Labs, Umbra, and HawkEye 360; GPS; miniature CubeSats for education and research; and military/defense satellites.

Loading next visibility...
Identifier
65998, 2025-231D
Orbit
LEO
Country
Flag of CNCN / PRC
Related business
Manufacturer
CAST
Mission
Operational Civil Communications
Bus & Motor
XINGWANG C, Unknown motor
Mass
~700 kg wet, ~700 kg dry
Launch date (UTC)
2025-10-16 (8 months ago)
Launch vehicle
CHANG ZHENG 8A
Launch site
Wenchang Satellite Launch Center (WSC)
Object type
Payload
Rocket body
Debris
Shape & HBR
Box + 2 Pan, 1.9 m
Radar Cross Section
5.935 m², Large (>1 m²)

Expand to show TLE details & history
Last TLE update: 15 hours ago

TLE from 15 hours ago
0 HULIANWANG DIGUI-90
1 65998U 25231D   26171.23080664 -.00000203  00000-0 -16933-3 0  9998
2 65998  49.9991 164.7670 0000841 245.1772 114.9013 13.29326141 33290
Epoch: 2026-06-20T05:32Z
TLE epoch observation values (Epoch: 2026-06-20T05:32:21.693Z)
Latitude
Longitude
173.22821°
Altitude
1,150.078 km
Speed
7.279 km/s
True Right ascension
10h 59m 04s
True Declination
0° 00' 00"
Sunlit
Object was in daylight at epoch
Visualization orbit readout
Latitude
Unknown
Longitude
Unknown
Altitude
Unknown
Speed
Unknown
Apparent Right ascension
Unknown
Apparent Declination
Unknown
Sunlit
N/A
Visualization observer readout
Local Sidereal Time
07:23:42
Azimuth
Unknown
Elevation
Unknown
Doppler factor
Unknown
Orbital elements
Apogee altitude
1,150.645 km
Perigee altitude
1,149.378 km
Semi-major axis
7,528.149 km
Eccentricity
0.00008
Inclination
49.9991°
RAAN
164.767°
Arg. of periapsis
245.1772°
True anomaly
114.91004°
Mean anomaly
114.9013°
Eccentric anomaly
114.90567°
Mean motion
3.32285 °/min
Orbital period
108.34 mins
BSTAR
-0.00016933
Loading maneuver chart data...
Computing Atmospheric mass density...
Loading historical data...
Loading historical data...
Loading historical data...
Loading historical data...
Loading historical data...
Loading historical data...
Loading historical data...

Documentation

Showing up to 5 results
|